,,Stat6,,Stat2,,Stat8,,Stat9,,Stat10,,Wind1,,Wind1,
time,status,PA1M_AVG,status,PR1M_SUM,status,RH1M_AVG,status,SR1M_AVG,status,TA1M_AVG,status,W1dAve1m,status,W1sAve1m,
2008-12-02, 00:00:01,VALID,918.67,VALID,0,VALID,99.5781,VALID,0,VALID,18.3496,VALID,139,VALID,0,
2008-12-02, 00:01:01,VALID,918.658,VALID,0,VALID,99.2665,VALID,-0.0339617,VALID,18.3528,VALID,139,VALID,0,
2008-12-02, 00:02:00,VALID,918.64,VALID,0,VALID,98.6066,VALID,-0.0169808,VALID,18.2979,VALID,139,VALID,0,
2008-12-02, 00:03:00,VALID,918.632,VALID,0,VALID,98.5595,VALID,0,VALID,18.2196,VALID,139,VALID,0,
2008-12-02, 00:04:00,VALID,918.618,VALID,0,VALID,99.1305,VALID,0,VALID,18.2097,VALID,78,VALID,0,
2008-12-02, 00:05:00,VALID,918.623,VALID,0,VALID,99.1712,VALID,-0.0169808,VALID,18.2134,VALID,70,VALID,0,
2008-12-02, 00:06:00,VALID,918.616,VALID,0,VALID,99.6468,VALID,-0.0169808,VALID,18.2224,VALID,70,VALID,0,
2008-12-02, 00:07:00,VALID,918.598,VALID,0,VALID,99.8222,VALID,-0.0169808,VALID,18.2908,VALID,70,VALID,0,
2008-12-02, 00:08:00,VALID,918.6,VALID,0,VALID,99.7815,VALID,0,VALID,18.3329,VALID,70,VALID,0,
2008-12-02, 00:09:00,VALID,918.58,VALID,0,VALID,99.6073,VALID,0,VALID,18.3454,VALID,70,VALID,0,
2008-12-02, 00:10:00,VALID,918.559,VALID,0,VALID,99.442,VALID,0,VALID,18.3424,VALID,70,VALID,0,
2008-12-02, 00:11:00,VALID,918.528,VALID,0,VALID,99.4967,VALID,-0.0169808,VALID,18.3556,VALID,70,VALID,0,
2008-12-02, 00:12:00,VALID,918.512,VALID,0,VALID,99.1813,VALID,0.0169808,VALID,18.3264,VALID,70,VALID,0,
2008-12-02, 00:13:00,VALID,918.484,VALID,0,VALID,99.0478,VALID,-0.0339617,VALID,18.2815,VALID,100,VALID,0,
2008-12-02, 00:14:00,VALID,918.452,VALID,0,VALID,99.2602,VALID,0.0169808,VALID,18.2715,VALID,119,VALID,0,
2008-12-02, 00:15:00,VALID,918.437,VALID,0,VALID,99.2754,VALID,-0.0339617,VALID,18.2389,VALID,122,VALID,0,
2008-12-02, 00:16:00,VALID,918.433,VALID,0,VALID,99.4738,VALID,0,VALID,18.2324,VALID,122,VALID,0,
2008-12-02, 00:17:00,VALID,918.428,VALID,0,VALID,99.6124,VALID,0,VALID,18.2419,VALID,122,VALID,0,
2008-12-02, 00:18:00,VALID,918.438,VALID,0,VALID,99.498,VALID,0,VALID,18.2486,VALID,122,VALID,0,
2008-12-02, 00:19:00,VALID,918.442,VALID,0,VALID,99.5476,VALID,-0.0169808,VALID,18.2456,VALID,122,VALID,0,
2008-12-02, 00:20:00,VALID,918.452,VALID,0,VALID,99.5997,VALID,0,VALID,18.2586,VALID,123,VALID,0,
2008-12-02, 00:21:00,VALID,918.453,VALID,0,VALID,99.6773,VALID,0,VALID,18.2683,VALID,136,VALID,0,
2008-12-02, 00:22:00,VALID,918.445,VALID,0,VALID,99.807,VALID,0,VALID,18.2808,VALID,137,VALID,0,
2008-12-02, 00:23:00,VALID,918.442,VALID,0,VALID,99.999,VALID,0,VALID,18.3301,VALID,147,VALID,0,
2008-12-02, 00:24:00,VALID,918.438,VALID,0,VALID,100,VALID,0,VALID,18.3491,VALID,162,VALID,0,
2008-12-02, 00:25:00,VALID,918.429,VALID,0,VALID,99.8324,VALID,0.0169808,VALID,18.3292,VALID,163,VALID,0,
2008-12-02, 00:26:00,VALID,918.411,VALID,0,VALID,99.7294,VALID,0,VALID,18.2933,VALID,161,VALID,0,
2008-12-02, 00:27:00,VALID,918.386,VALID,0,VALID,99.8438,VALID,0,VALID,18.2873,VALID,138,VALID,0,
2008-12-02, 00:28:00,VALID,918.376,VALID,0,VALID,100,VALID,0,VALID,18.2977,VALID,141,VALID,0,
2008-12-02, 00:29:00,VALID,918.347,VALID,0,VALID,99.9952,VALID,-0.0169808,VALID,18.3012,VALID,143,VALID,0,
2008-12-02, 00:30:00,VALID,918.338,VALID,0,VALID,99.8884,VALID,-0.0509425,VALID,18.2523,VALID,143,VALID,0,
2008-12-02, 00:31:00,VALID,918.328,VALID,0,VALID,99.9967,VALID,0,VALID,18.2333,VALID,143,VALID,0,
2008-12-02, 00:32:00,VALID,918.335,VALID,0,VALID,100,VALID,-0.0169808,VALID,18.2363,VALID,143,VALID,0,
2008-12-02, 00:33:00,VALID,918.34,VALID,0,VALID,100,VALID,-0.0509425,VALID,18.2393,VALID,143,VALID,0,
2008-12-02, 00:34:00,VALID,918.329,VALID,0,VALID,99.999,VALID,-0.0339617,VALID,18.2331,VALID,143,VALID,0,
2008-12-02, 00:35:00,VALID,918.318,VALID,0,VALID,100,VALID,-0.0169808,VALID,18.2296,VALID,143,VALID,0,
2008-12-02, 00:36:00,VALID,918.33,VALID,0,VALID,100,VALID,-0.0339617,VALID,18.2493,VALID,143,VALID,0,
2008-12-02, 00:37:00,VALID,918.326,VALID,0,VALID,99.9977,VALID,-0.0169808,VALID,18.2393,VALID,143,VALID,0,
2008-12-02, 00:38:00,VALID,918.32,VALID,0,VALID,100,VALID,-0.0169808,VALID,18.2298,VALID,143,VALID,0,
2008-12-02, 00:39:00,VALID,918.315,VALID,0,VALID,100,VALID,0,VALID,18.2426,VALID,143,VALID,0,
2008-12-02, 00:40:00,VALID,918.281,VALID,0,VALID,100,VALID,0,VALID,18.2361,VALID,143,VALID,0,
2008-12-02, 00:41:00,VALID,918.273,VALID,0,VALID,100,VALID,0,VALID,18.2715,VALID,143,VALID,0,
2008-12-02, 00:42:00,VALID,918.263,VALID,0,VALID,99.8909,VALID,0,VALID,18.2551,VALID,143,VALID,0,
2008-12-02, 00:43:00,VALID,918.252,VALID,0,VALID,99.6824,VALID,0,VALID,18.2099,VALID,143,VALID,0,
2008-12-02, 00:44:00,VALID,918.25,VALID,0,VALID,99.7052,VALID,0,VALID,18.1708,VALID,143,VALID,0,
2008-12-02, 00:45:00,VALID,918.224,VALID,0,VALID,99.7497,VALID,0,VALID,18.1675,VALID,143,VALID,0,
2008-12-02, 00:46:00,VALID,918.211,VALID,0,VALID,99.6035,VALID,-0.0169808,VALID,18.1548,VALID,143,VALID,0,
2008-12-02, 00:47:00,VALID,918.219,VALID,0,VALID,99.6124,VALID,0.0169808,VALID,18.1284,VALID,143,VALID,0,
2008-12-02, 00:48:00,VALID,918.208,VALID,0,VALID,99.7281,VALID,0.0169808,VALID,18.1356,VALID,143,VALID,0,
2008-12-02, 00:49:00,VALID,918.196,VALID,0,VALID,99.7688,VALID,0.0339617,VALID,18.1351,VALID,143,VALID,0,
2008-12-02, 00:50:00,VALID,918.2,VALID,0,VALID,99.7943,VALID,0.0169808,VALID,18.1386,VALID,143,VALID,0,
2008-12-02, 00:51:00,VALID,918.181,VALID,0,VALID,99.7599,VALID,-0.0169808,VALID,18.1288,VALID,143,VALID,0,
2008-12-02, 00:52:00,VALID,918.164,VALID,0,VALID,99.718,VALID,-0.0169808,VALID,18.1059,VALID,143,VALID,0,
2008-12-02, 00:53:00,VALID,918.142,VALID,0,VALID,99.7091,VALID,0,VALID,18.0929,VALID,143,VALID,0,
2008-12-02, 00:54:00,VALID,918.134,VALID,0,VALID,99.7065,VALID,-0.0339617,VALID,18.061,VALID,143,VALID,0,
2008-12-02, 00:55:00,VALID,918.12,VALID,0,VALID,99.9298,VALID,0.0169808,VALID,18.0346,VALID,143,VALID,0,
2008-12-02, 00:56:00,VALID,918.108,VALID,0,VALID,100,VALID,0,VALID,18.0506,VALID,143,VALID,0,
2008-12-02, 00:57:00,VALID,918.096,VALID,0,VALID,100,VALID,0,VALID,18.0702,VALID,143,VALID,0,
2008-12-02, 00:58:00,VALID,918.067,VALID,0,VALID,100,VALID,0.0169808,VALID,18.0698,VALID,143,VALID,0,
2008-12-02, 00:59:00,VALID,918.052,VALID,0,VALID,100,VALID,0.0339617,VALID,18.0925,VALID,143,VALID,0,
2008-12-02, 01:00:00,VALID,918.045,VALID,0,VALID,100,VALID,0.0169808,VALID,18.1089,VALID,143,VALID,0,
2008-12-02, 01:01:00,VALID,918.045,VALID,0,VALID,100,VALID,-0.0169808,VALID,18.1448,VALID,143,VALID,0,
2008-12-02, 01:02:00,VALID,918.045,VALID,0,VALID,100,VALID,0.0169808,VALID,18.2317,VALID,143,VALID,0,
2008-12-02, 01:03:00,VALID,918.04,VALID,0,VALID,99.9224,VALID,0,VALID,18.3329,VALID,143,VALID,0,
2008-12-02, 01:04:00,VALID,918.044,VALID,0,VALID,99.6646,VALID,0,VALID,18.4207,VALID,143,VALID,0,
2008-12-02, 01:05:00,VALID,918.041,VALID,0,VALID,99.2208,VALID,0.0169808,VALID,18.4557,VALID,143,VALID,0,
2008-12-02, 01:06:00,VALID,918.051,VALID,0,VALID,98.9194,VALID,0.0339617,VALID,18.4684,VALID,143,VALID,0,
2008-12-02, 01:07:00,VALID,918.037,VALID,0,VALID,98.7757,VALID,-0.0339617,VALID,18.4823,VALID,143,VALID,0,
2008-12-02, 01:08:00,VALID,918.012,VALID,0,VALID,98.6829,VALID,-0.101885,VALID,18.5254,VALID,143,VALID,0,
2008-12-02, 01:09:00,VALID,918.015,VALID,0,VALID,98.4934,VALID,-0.0849042,VALID,18.5871,VALID,143,VALID,0,
2008-12-02, 01:10:00,VALID,917.98,VALID,0,VALID,98.3077,VALID,-0.0679233,VALID,18.6195,VALID,143,VALID,0,
2008-12-02, 01:11:00,VALID,917.944,VALID,0,VALID,98.0013,VALID,-0.0679233,VALID,18.6517,VALID,143,VALID,0,
2008-12-02, 01:12:00,VALID,917.896,VALID,0,VALID,97.5982,VALID,-0.0849042,VALID,18.7038,VALID,127,VALID,0,
2008-12-02, 01:13:00,VALID,917.856,VALID,0,VALID,97.265,VALID,-0.0849042,VALID,18.7363,VALID,71,VALID,0,
2008-12-02, 01:14:00,VALID,917.835,VALID,0,VALID,96.9993,VALID,-0.0849042,VALID,18.7455,VALID,61,VALID,0,
2008-12-02, 01:15:00,VALID,917.832,VALID,0,VALID,96.7933,VALID,-0.0509425,VALID,18.7884,VALID,61,VALID,0,
2008-12-02, 01:16:00,VALID,917.826,VALID,0,VALID,96.5746,VALID,-0.0509425,VALID,18.7752,VALID,61,VALID,0,
2008-12-02, 01:17:00,VALID,917.836,VALID,0,VALID,96.5059,VALID,-0.118866,VALID,18.7238,VALID,61,VALID,0,
2008-12-02, 01:18:00,VALID,917.838,VALID,0,VALID,96.7144,VALID,-0.118866,VALID,18.6552,VALID,61,VALID,0,
2008-12-02, 01:19:00,VALID,917.831,VALID,0,VALID,96.8886,VALID,-0.101885,VALID,18.6684,VALID,61,VALID,0,
2008-12-02, 01:20:00,VALID,917.805,VALID,0,VALID,96.9281,VALID,-0.0849042,VALID,18.6649,VALID,61,VALID,0,
2008-12-02, 01:21:00,VALID,917.796,VALID,0,VALID,96.9904,VALID,-0.0679233,VALID,18.6781,VALID,61,VALID,0,
2008-12-02, 01:22:00,VALID,917.785,VALID,0,VALID,96.9586,VALID,-0.0339617,VALID,18.6737,VALID,61,VALID,0,
2008-12-02, 01:23:00,VALID,917.789,VALID,0,VALID,96.8708,VALID,-0.0169808,VALID,18.6797,VALID,61,VALID,0,
2008-12-02, 01:24:00,VALID,917.777,VALID,0,VALID,96.7221,VALID,0,VALID,18.7124,VALID,61,VALID,0,
2008-12-02, 01:25:00,VALID,917.759,VALID,0,VALID,96.4652,VALID,0,VALID,18.761,VALID,61,VALID,0,
2008-12-02, 01:26:00,VALID,917.75,VALID,0,VALID,96.1702,VALID,-0.0509425,VALID,18.8426,VALID,61,VALID,0,
2008-12-02, 01:27:00,VALID,917.735,VALID,0,VALID,95.926,VALID,0,VALID,18.8783,VALID,61,VALID,0,
2008-12-02, 01:28:00,VALID,917.724,VALID,0,VALID,95.8764,VALID,0,VALID,18.9107,VALID,61,VALID,0,
2008-12-02, 01:29:00,VALID,917.716,VALID,0,VALID,95.8993,VALID,0,VALID,18.9167,VALID,61,VALID,0,
2008-12-02, 01:30:00,VALID,917.705,VALID,0,VALID,95.8586,VALID,0,VALID,18.9265,VALID,61,VALID,0,
2008-12-02, 01:31:00,VALID,917.688,VALID,0,VALID,95.6641,VALID,0.0169808,VALID,18.9272,VALID,61,VALID,0,
2008-12-02, 01:32:00,VALID,917.681,VALID,0,VALID,95.5496,VALID,0,VALID,18.9497,VALID,61,VALID,0,
2008-12-02, 01:33:00,VALID,917.681,VALID,0,VALID,95.4848,VALID,0,VALID,18.9494,VALID,61,VALID,0,
2008-12-02, 01:34:00,VALID,917.671,VALID,0,VALID,95.5318,VALID,-0.0169808,VALID,18.9564,VALID,61,VALID,0,
2008-12-02, 01:35:00,VALID,917.651,VALID,0,VALID,95.701,VALID,0,VALID,18.9596,VALID,61,VALID,0,
2008-12-02, 01:36:00,VALID,917.615,VALID,0,VALID,95.8993,VALID,-0.0169808,VALID,18.9302,VALID,61,VALID,0,
2008-12-02, 01:37:00,VALID,917.602,VALID,0,VALID,95.8663,VALID,-0.0169808,VALID,18.8848,VALID,61,VALID,0,
2008-12-02, 01:38:00,VALID,917.604,VALID,0,VALID,96.0201,VALID,-0.0169808,VALID,18.8199,VALID,61,VALID,0,
2008-12-02, 01:39:00,VALID,917.589,VALID,0,VALID,96.2579,VALID,-0.0339617,VALID,18.755,VALID,61,VALID,0,
2008-12-02, 01:40:00,VALID,917.592,VALID,0,VALID,96.586,VALID,-0.0169808,VALID,18.7126,VALID,61,VALID,0,
2008-12-02, 01:41:00,VALID,917.572,VALID,0,VALID,96.8479,VALID,-0.0339617,VALID,18.7066,VALID,61,VALID,0,
2008-12-02, 01:42:00,VALID,917.555,VALID,0,VALID,96.9802,VALID,-0.0339617,VALID,18.6834,VALID,61,VALID,0,
2008-12-02, 01:43:00,VALID,917.539,VALID,0,VALID,97.1023,VALID,-0.0169808,VALID,18.6675,VALID,61,VALID,0,
2008-12-02, 01:44:00,VALID,917.517,VALID,0,VALID,97.1709,VALID,0,VALID,18.658,VALID,63,VALID,0,
2008-12-02, 01:45:00,VALID,917.495,VALID,0,VALID,97.2447,VALID,0,VALID,18.6251,VALID,74,VALID,0,
2008-12-02, 01:46:00,VALID,917.477,VALID,0,VALID,97.4049,VALID,-0.0679233,VALID,18.6255,VALID,99,VALID,0,
2008-12-02, 01:47:00,VALID,917.452,VALID,0,VALID,97.4609,VALID,-0.0339617,VALID,18.6123,VALID,100,VALID,0,
2008-12-02, 01:48:00,VALID,917.436,VALID,0,VALID,97.3159,VALID,-0.0339617,VALID,18.6125,VALID,100,VALID,0,
2008-12-02, 01:49:00,VALID,917.422,VALID,0,VALID,97.2472,VALID,-0.0339617,VALID,18.645,VALID,100,VALID,0,
2008-12-02, 01:50:00,VALID,917.404,VALID,0,VALID,97.162,VALID,-0.0169808,VALID,18.6709,VALID,100,VALID,0,
2008-12-02, 01:51:00,VALID,917.372,VALID,0,VALID,97.1468,VALID,-0.0509425,VALID,18.6837,VALID,100,VALID,0,
2008-12-02, 01:52:00,VALID,917.348,VALID,0,VALID,97.0336,VALID,-0.0679233,VALID,18.6809,VALID,100,VALID,0,
2008-12-02, 01:53:00,VALID,917.336,VALID,0,VALID,97.1226,VALID,-0.101885,VALID,18.6489,VALID,100,VALID,0,
2008-12-02, 01:54:00,VALID,917.321,VALID,0,VALID,97.2867,VALID,-0.152827,VALID,18.6207,VALID,100,VALID,0,
2008-12-02, 01:55:00,VALID,917.299,VALID,0,VALID,97.3846,VALID,-0.135847,VALID,18.5947,VALID,100,VALID,0,
2008-12-02, 01:56:00,VALID,917.278,VALID,0,VALID,97.5028,VALID,-0.135847,VALID,18.601,VALID,100,VALID,0,
2008-12-02, 01:57:00,VALID,917.237,VALID,0,VALID,97.4113,VALID,-0.135847,VALID,18.5683,VALID,100,VALID,0,
2008-12-02, 01:58:00,VALID,917.208,VALID,0,VALID,97.2956,VALID,-0.186789,VALID,18.5164,VALID,101,VALID,0,
2008-12-02, 01:59:00,VALID,917.188,VALID,0,VALID,97.3235,VALID,-0.118866,VALID,18.5294,VALID,101,VALID,0,
2008-12-02, 02:00:00,VALID,917.187,VALID,0,VALID,97.2599,VALID,-0.135847,VALID,18.5618,VALID,101,VALID,0,
2008-12-02, 02:01:00,VALID,917.185,VALID,0,VALID,97.1658,VALID,-0.101885,VALID,18.5815,VALID,101,VALID,0,
2008-12-02, 02:02:00,VALID,917.178,VALID,0,VALID,96.998,VALID,-0.135847,VALID,18.5945,VALID,101,VALID,0,
2008-12-02, 02:03:00,VALID,917.173,VALID,0,VALID,96.9281,VALID,-0.101885,VALID,18.601,VALID,101,VALID,0,
2008-12-02, 02:04:00,VALID,917.168,VALID,0,VALID,96.7589,VALID,-0.135847,VALID,18.5913,VALID,101,VALID,0,
2008-12-02, 02:05:00,VALID,917.183,VALID,0,VALID,96.731,VALID,-0.135847,VALID,18.5808,VALID,101,VALID,0,
2008-12-02, 02:06:00,VALID,917.172,VALID,0,VALID,96.7895,VALID,-0.118866,VALID,18.6075,VALID,101,VALID,0,
2008-12-02, 02:07:00,VALID,917.172,VALID,0,VALID,96.7004,VALID,-0.0339617,VALID,18.613,VALID,101,VALID,0,
2008-12-02, 02:08:00,VALID,917.177,VALID,0,VALID,96.5262,VALID,-0.0339617,VALID,18.6125,VALID,101,VALID,0,
2008-12-02, 02:09:00,VALID,917.146,VALID,0,VALID,96.4627,VALID,0.0169808,VALID,18.622,VALID,101,VALID,0,
2008-12-02, 02:10:00,VALID,917.144,VALID,0,VALID,96.5517,VALID,0,VALID,18.6512,VALID,101,VALID,0,
2008-12-02, 02:11:00,VALID,917.138,VALID,0,VALID,96.5746,VALID,0,VALID,18.6251,VALID,101,VALID,0,
2008-12-02, 02:12:00,VALID,917.149,VALID,0,VALID,96.7513,VALID,0,VALID,18.6091,VALID,101,VALID,0,
2008-12-02, 02:13:00,VALID,917.162,VALID,0,VALID,96.9153,VALID,0,VALID,18.6121,VALID,101,VALID,0,
2008-12-02, 02:14:00,VALID,917.148,VALID,0,VALID,96.9586,VALID,-0.0169808,VALID,18.6123,VALID,101,VALID,0,
2008-12-02, 02:15:00,VALID,917.141,VALID,0,VALID,96.9471,VALID,-0.0339617,VALID,18.622,VALID,101,VALID,0,
2008-12-02, 02:16:00,VALID,917.133,VALID,0,VALID,96.9649,VALID,-0.0169808,VALID,18.6447,VALID,101,VALID,0,
2008-12-02, 02:17:00,VALID,917.13,VALID,0,VALID,96.834,VALID,-0.0339617,VALID,18.6904,VALID,101,VALID,0,
2008-12-02, 02:18:00,VALID,917.134,VALID,0,VALID,96.7717,VALID,0,VALID,18.7418,VALID,75,VALID,0,
2008-12-02, 02:19:00,VALID,917.133,VALID,0,VALID,96.4067,VALID,0,VALID,18.7483,VALID,54,VALID,0,
2008-12-02, 02:20:00,VALID,917.138,VALID,0,VALID,96.5148,VALID,-0.0339617,VALID,18.8104,VALID,54,VALID,0,
2008-12-02, 02:21:00,VALID,917.127,VALID,0,VALID,96.4588,VALID,-0.0339617,VALID,18.8489,VALID,54,VALID,0,
2008-12-02, 02:22:00,VALID,917.116,VALID,0,VALID,95.9655,VALID,-0.0339617,VALID,18.8556,VALID,54,VALID,0,
2008-12-02, 02:23:00,VALID,917.107,VALID,0,VALID,95.9337,VALID,-0.0169808,VALID,18.8818,VALID,54,VALID,0,
2008-12-02, 02:24:00,VALID,917.114,VALID,0,VALID,95.8612,VALID,-0.0849042,VALID,18.9142,VALID,54,VALID,0,
2008-12-02, 02:25:00,VALID,917.105,VALID,0,VALID,95.851,VALID,-0.0339617,VALID,18.9596,VALID,54,VALID,0,
2008-12-02, 02:26:00,VALID,917.098,VALID,0,VALID,96.0507,VALID,-0.0339617,VALID,18.9821,VALID,54,VALID,0,
2008-12-02, 02:27:00,VALID,917.101,VALID,0,VALID,95.3691,VALID,-0.0509425,VALID,18.9921,VALID,54,VALID,0,
2008-12-02, 02:28:00,VALID,917.111,VALID,0,VALID,95.5191,VALID,-0.0169808,VALID,19.0375,VALID,54,VALID,0,
2008-12-02, 02:29:00,VALID,917.108,VALID,0,VALID,95.2216,VALID,-0.0169808,VALID,19.0505,VALID,53,VALID,0,
2008-12-02, 02:30:00,VALID,917.1,VALID,0,VALID,95.6437,VALID,-0.0509425,VALID,19.047,VALID,33,VALID,0,
2008-12-02, 02:31:00,VALID,917.079,VALID,0,VALID,95.8294,VALID,-0.0339617,VALID,19.0011,VALID,25,VALID,0,
2008-12-02, 02:32:00,VALID,917.044,VALID,0,VALID,96.4906,VALID,-0.0679233,VALID,18.9527,VALID,23,VALID,0,
2008-12-02, 02:33:00,VALID,917.03,VALID,0,VALID,96.8988,VALID,-0.0169808,VALID,18.9235,VALID,19,VALID,0,
2008-12-02, 02:34:00,VALID,917.009,VALID,0,VALID,97.1341,VALID,0,VALID,18.8845,VALID,19,VALID,0,
2008-12-02, 02:35:00,VALID,916.988,VALID,0,VALID,97.3337,VALID,-0.0169808,VALID,18.8618,VALID,37,VALID,0,
2008-12-02, 02:36:00,VALID,916.965,VALID,0,VALID,97.1786,VALID,0,VALID,18.8137,VALID,56,VALID,0,
2008-12-02, 02:37:00,VALID,916.945,VALID,0,VALID,97.5817,VALID,-0.0169808,VALID,18.8104,VALID,53,VALID,0,
2008-12-02, 02:38:00,VALID,916.926,VALID,0,VALID,97.7355,VALID,0,VALID,18.7965,VALID,46,VALID,0,
2008-12-02, 02:39:00,VALID,916.922,VALID,0,VALID,97.7737,VALID,-0.0509425,VALID,18.8134,VALID,43,VALID,0,
2008-12-02, 02:40:00,VALID,916.924,VALID,0,VALID,97.7508,VALID,-0.0509425,VALID,18.7807,VALID,43,VALID,0,
2008-12-02, 02:41:00,VALID,916.918,VALID,0,VALID,97.9275,VALID,-0.0339617,VALID,18.7386,VALID,43,VALID,0,
2008-12-02, 02:42:00,VALID,916.919,VALID,0,VALID,98.0852,VALID,-0.0339617,VALID,18.7328,VALID,42,VALID,0,
2008-12-02, 02:43:00,VALID,916.905,VALID,0,VALID,98.2849,VALID,-0.0509425,VALID,18.6966,VALID,11,VALID,0,
2008-12-02, 02:44:00,VALID,916.899,VALID,0,VALID,98.3523,VALID,-0.0679233,VALID,18.7103,VALID,3,VALID,0,
2008-12-02, 02:45:00,VALID,916.888,VALID,0,VALID,98.4095,VALID,-0.0509425,VALID,18.7036,VALID,19,VALID,0.0349864,
2008-12-02, 02:46:00,VALID,916.865,VALID,0,VALID,98.5913,VALID,-0.0509425,VALID,18.6872,VALID,49,VALID,0,
2008-12-02, 02:47:00,VALID,916.846,VALID,0,VALID,98.6206,VALID,0,VALID,18.6318,VALID,33,VALID,0,
2008-12-02, 02:48:00,VALID,916.804,VALID,0,VALID,98.899,VALID,-0.0509425,VALID,18.5799,VALID,21,VALID,0.0680556,
2008-12-02, 02:49:00,VALID,916.785,VALID,0,VALID,99.1445,VALID,-0.0679233,VALID,18.525,VALID,32,VALID,0.142987,
2008-12-02, 02:50:00,VALID,916.761,VALID,0,VALID,99.4751,VALID,-0.0509425,VALID,18.4733,VALID,17,VALID,0.306726,
2008-12-02, 02:51:00,VALID,916.754,VALID,0,VALID,99.8108,VALID,-0.0679233,VALID,18.421,VALID,18,VALID,0.0166903,
2008-12-02, 02:52:00,VALID,916.725,VALID,0,VALID,99.9888,VALID,-0.0339617,VALID,18.3823,VALID,9,VALID,0.21317,
2008-12-02, 02:53:00,VALID,916.71,VALID,0,VALID,100,VALID,-0.0679233,VALID,18.3498,VALID,16,VALID,0,
2008-12-02, 02:54:00,VALID,916.679,VALID,0,VALID,100,VALID,-0.0849042,VALID,18.3369,VALID,8,VALID,0,
2008-12-02, 02:55:00,VALID,916.668,VALID,0,VALID,100,VALID,-0.0509425,VALID,18.3239,VALID,23,VALID,0,
2008-12-02, 02:56:00,VALID,916.659,VALID,0,VALID,100,VALID,-0.0679233,VALID,18.2982,VALID,37,VALID,0.19931,
2008-12-02, 02:57:00,VALID,916.677,VALID,0,VALID,100,VALID,-0.0679233,VALID,18.2977,VALID,22,VALID,0.734961,
2008-12-02, 02:58:00,VALID,916.682,VALID,0,VALID,100,VALID,-0.0339617,VALID,18.3626,VALID,13,VALID,0.566493,
2008-12-02, 02:59:00,VALID,916.697,VALID,0,VALID,100,VALID,0,VALID,18.4047,VALID,17,VALID,0.102679,
2008-12-02, 03:00:00,VALID,916.697,VALID,0,VALID,100,VALID,-0.0169808,VALID,18.4342,VALID,4,VALID,0.344866,
2008-12-02, 03:01:00,VALID,916.697,VALID,0,VALID,100,VALID,-0.0339617,VALID,18.4599,VALID,15,VALID,0.229167,
2008-12-02, 03:02:00,VALID,916.697,VALID,0,VALID,100,VALID,-0.0339617,VALID,18.4958,VALID,5,VALID,0.664418,
2008-12-02, 03:03:00,VALID,916.691,VALID,0,VALID,100,VALID,-0.0509425,VALID,18.5185,VALID,2,VALID,0,
2008-12-02, 03:04:00,VALID,916.698,VALID,0,VALID,100,VALID,-0.0339617,VALID,18.5474,VALID,5,VALID,0.0012429,
2008-12-02, 03:05:00,VALID,916.685,VALID,0,VALID,100,VALID,0,VALID,18.5766,VALID,13,VALID,0,
2008-12-02, 03:06:00,VALID,916.683,VALID,0,VALID,100,VALID,-0.0509425,VALID,18.6086,VALID,9,VALID,0.240234,
2008-12-02, 03:07:00,VALID,916.675,VALID,0,VALID,100,VALID,-0.0679233,VALID,18.6413,VALID,2,VALID,0,
2008-12-02, 03:08:00,VALID,916.679,VALID,0,VALID,100,VALID,-0.0849042,VALID,18.6677,VALID,347,VALID,0,
2008-12-02, 03:09:00,VALID,916.672,VALID,0,VALID,100,VALID,-0.0849042,VALID,18.6939,VALID,313,VALID,0,
2008-12-02, 03:10:00,VALID,916.656,VALID,0,VALID,100,VALID,-0.0679233,VALID,18.6904,VALID,341,VALID,0,
2008-12-02, 03:11:00,VALID,916.665,VALID,0,VALID,100,VALID,-0.0509425,VALID,18.7096,VALID,341,VALID,0,
2008-12-02, 03:12:00,VALID,916.648,VALID,0,VALID,100,VALID,-0.0169808,VALID,18.7358,VALID,8,VALID,0,
2008-12-02, 03:13:00,VALID,916.648,VALID,0,VALID,100,VALID,-0.0169808,VALID,18.7643,VALID,10,VALID,0,
2008-12-02, 03:14:00,VALID,916.645,VALID,0,VALID,100,VALID,-0.0169808,VALID,18.8099,VALID,11,VALID,0,
2008-12-02, 03:15:00,VALID,916.626,VALID,0,VALID,100,VALID,-0.0169808,VALID,18.8461,VALID,9,VALID,0,
2008-12-02, 03:16:00,VALID,916.606,VALID,0,VALID,99.9743,VALID,-0.0509425,VALID,18.8656,VALID,34,VALID,0,
2008-12-02, 03:17:00,VALID,916.576,VALID,0,VALID,99.8769,VALID,-0.0339617,VALID,18.8781,VALID,31,VALID,0,
2008-12-02, 03:18:00,VALID,916.56,VALID,0,VALID,99.8362,VALID,-0.0339617,VALID,18.9008,VALID,42,VALID,0,
2008-12-02, 03:19:00,VALID,916.543,VALID,0,VALID,99.7548,VALID,-0.0169808,VALID,18.9267,VALID,35,VALID,0,
2008-12-02, 03:20:00,VALID,916.528,VALID,0,VALID,99.6251,VALID,-0.0339617,VALID,18.9594,VALID,32,VALID,0,
2008-12-02, 03:21:00,VALID,916.525,VALID,0,VALID,99.5272,VALID,-0.0849042,VALID,18.9596,VALID,32,VALID,0,
2008-12-02, 03:22:00,VALID,916.523,VALID,0,VALID,99.5336,VALID,-0.0169808,VALID,18.9492,VALID,31,VALID,0,
2008-12-02, 03:23:00,VALID,916.519,VALID,0,VALID,99.4827,VALID,-0.0169808,VALID,18.9624,VALID,28,VALID,0,
2008-12-02, 03:24:00,VALID,916.503,VALID,0,VALID,99.4649,VALID,0.0169808,VALID,18.9559,VALID,30,VALID,0,
2008-12-02, 03:25:00,VALID,916.475,VALID,0,VALID,99.4433,VALID,0,VALID,18.9596,VALID,39,VALID,0,
2008-12-02, 03:26:00,VALID,916.451,VALID,0,VALID,99.4179,VALID,-0.0169808,VALID,18.9466,VALID,41,VALID,0,
2008-12-02, 03:27:00,VALID,916.433,VALID,0,VALID,99.381,VALID,-0.0169808,VALID,18.9172,VALID,34,VALID,0,
2008-12-02, 03:28:00,VALID,916.404,VALID,0,VALID,99.442,VALID,0,VALID,18.8748,VALID,36,VALID,0.68192,
2008-12-02, 03:29:00,VALID,916.368,VALID,0,VALID,99.6188,VALID,-0.0339617,VALID,18.8588,VALID,43,VALID,0.891555,
2008-12-02, 03:30:00,VALID,916.333,VALID,0,VALID,99.6595,VALID,-0.0169808,VALID,18.8262,VALID,31,VALID,0.308933,
2008-12-02, 03:31:00,VALID,916.305,VALID,0,VALID,99.7002,VALID,0,VALID,18.8039,VALID,32,VALID,0.195929,
2008-12-02, 03:32:00,VALID,916.296,VALID,0,VALID,99.9636,VALID,-0.0169808,VALID,18.7578,VALID,34,VALID,0,
2008-12-02, 03:33:00,VALID,916.279,VALID,0,VALID,100,VALID,-0.0339617,VALID,18.7453,VALID,18,VALID,0.00090843,
2008-12-02, 03:34:00,VALID,916.26,VALID,0,VALID,100,VALID,0,VALID,18.7156,VALID,15,VALID,0.481957,
2008-12-02, 03:35:00,VALID,916.248,VALID,0,VALID,100,VALID,-0.0169808,VALID,18.7094,VALID,14,VALID,0.0485899,
2008-12-02, 03:36:00,VALID,916.235,VALID,0,VALID,100,VALID,0.0169808,VALID,18.6925,VALID,14,VALID,0,
2008-12-02, 03:37:00,VALID,916.236,VALID,0,VALID,100,VALID,-0.0169808,VALID,18.6802,VALID,15,VALID,0.0298295,
2008-12-02, 03:38:00,VALID,916.218,VALID,0,VALID,100,VALID,0,VALID,18.6707,VALID,23,VALID,0,
2008-12-02, 03:39:00,VALID,916.209,VALID,0,VALID,100,VALID,-0.0169808,VALID,18.641,VALID,33,VALID,0,
2008-12-02, 03:40:00,VALID,916.205,VALID,0,VALID,100,VALID,0,VALID,18.6218,VALID,47,VALID,0,
2008-12-02, 03:41:00,VALID,916.224,VALID,0,VALID,100,VALID,-0.0169808,VALID,18.5991,VALID,47,VALID,0,
2008-12-02, 03:42:00,VALID,916.246,VALID,0,VALID,100,VALID,0,VALID,18.5634,VALID,47,VALID,0,
2008-12-02, 03:43:00,VALID,916.268,VALID,0,VALID,100,VALID,-0.0339617,VALID,18.5338,VALID,47,VALID,0,
2008-12-02, 03:44:00,VALID,916.291,VALID,0,VALID,100,VALID,0,VALID,18.5312,VALID,47,VALID,0,
2008-12-02, 03:45:00,VALID,916.296,VALID,0,VALID,100,VALID,-0.0339617,VALID,18.5315,VALID,47,VALID,0,
2008-12-02, 03:46:00,VALID,916.296,VALID,0,VALID,100,VALID,0,VALID,18.5275,VALID,45,VALID,0,
2008-12-02, 03:47:00,VALID,916.307,VALID,0,VALID,100,VALID,0,VALID,18.5412,VALID,45,VALID,0,